OBJECT BD, 68467

Orbit data source: Space-Track

You're viewing an Uncataloged Satellite

Recently launched and/or uncataloged satellites may have evolving metadata. Metadata may include but not limited to: Owner, Maufacturer, Bus, Motor, and Mission.

OBJECT BD, 68467 is a satellite in SSO that was launched on Mon, 30 Mar 2026 UTC via an FALCON 9 launch vehicle from the Air Force Western Test Range (AFWTR). Unknown objects in Earth's orbit typically refer to objects detected orbiting the Earth but have not yet been identified or cataloged. These objects could be anything from previously untracked satellites, spent rocket stages, debris from satellite collisions, or even natural meteoroids temporarily captured by Earth's gravity.

Loading next visibility...
Identifier
68467, 2026-067BD
Orbit
SSO
Country
Flag of TBDTBD
Related business
None
Manufacturer
Unknown
Mission
Operational spacecraft
Bus & Motor
Unknown
Mass
Unknown
Launch date (UTC)
2026-03-30 (3 months ago)
Launch vehicle
FALCON 9
Launch site
Air Force Western Test Range (AFWTR)
Object type
Unknown
Shape & HBR
Unknown shape, 0.1 m
Radar Cross Section
Small (<0.1 m²)

Expand to show TLE details & history
Last TLE update: 2 days ago

TLE from 2 days ago
0 OBJECT BD
1 68467U 26067BD  26170.85377996  .00014057  00000-0  67166-3 0  9998
2 68467  97.4411 129.1211 0008661  75.9063 284.3133 15.19102162 12349
Epoch: 2026-06-19T20:29Z
TLE epoch observation values (Epoch: 2026-06-19T20:29:26.588Z)
Latitude
-0.00009°
Longitude
-86.31646°
Altitude
510.171 km
Speed
7.61 km/s
True Right ascension
08h 36m 29s
True Declination
0° 00' 00"
Sunlit
Object was in daylight at epoch
Visualization orbit readout
Latitude
Unknown
Longitude
Unknown
Altitude
Unknown
Speed
Unknown
Apparent Right ascension
Unknown
Apparent Declination
Unknown
Sunlit
N/A
Visualization observer readout
Local Sidereal Time
15:18:57
Azimuth
Unknown
Elevation
Unknown
Doppler factor
Unknown
Orbital elements
Apogee altitude
511.483 km
Perigee altitude
499.559 km
Semi-major axis
6,883.658 km
Eccentricity
0.00087
Inclination
97.4411°
RAAN
129.1211°
Arg. of periapsis
75.9063°
True anomaly
284.21711°
Mean anomaly
284.3133°
Eccentric anomaly
284.26521°
Mean motion
3.80027 °/min
Orbital period
94.73 mins
BSTAR
0.00067166
Loading maneuver chart data...
Computing Atmospheric mass density...
Loading historical data...
Loading historical data...
Loading historical data...
Loading historical data...
Loading historical data...
Loading historical data...
Loading historical data...

Documentation

Showing up to 5 results
|